Tracking 29528 objects as of 14-Sep-2024
HD Live streaming from Space Station
objects crossing your sky now

METEOR 2-8 DEB

Track METEOR 2-8 DEB now!
10-day predictions


NORAD ID: 36338
Int'l Code: 1982-025Y
Perigee: 811.4 km
Apogee: 836.6 km
Inclination: 82.5 °
Period: 101.2 minutes
Semi major axis: 7195 km
RCS: 0.0162 m2 (small)
Launch date: March 25, 1982
Source: Commonwealth of Independent States (former USSR) (CIS)
Launch site: PLESETSK MISSILE AND SPACE COMPLEX (PKMTR)

Note: This is SATELLITE DEBRIS
Your satellite tracking list
Your tracking list is empty




NASA's NSSDC Master Catalog

Two Line Element Set (TLE):
1 36338U 82025Y   24258.03449452  .00026849  00000-0  11976-1 0  9996
2 36338  82.5298   2.9967 0017498 167.3924 192.7699 14.22506324 87943
Source of the keplerian elements: AFSPC